Regional Weather Roundup
Issued by NWS

Home | Current Version | Previous Version | Text Only | Print | Product List | Glossary Off
Versions: 1 2 3 4 5 6 7 8 9 10 11 12 13 14 15 16 17 18 19 20 21 22 23 24 25 26 27 28 29 30 31 32 33 34 35 36 37 38 39 40 41 42 43 44 45 46 47 48 49 50

000
ASUS43 KOAX 011602
RWRNE

WEATHER ROUNDUP FOR NEBRASKA
NATIONAL WEATHER SERVICE OMAHA NE
1100 AM CDT WED JUL 01 2015

NOTES: SATELLITE DATA IS BEING USED TO AUGMENT CLOUD COVER ABOVE
       12000 FEET.
       "FAIR" INDICATES FEW OR NO CLOUDS BELOW 12,000 FEET WITH NO
       SIGNIFICANT WEATHER AND/OR OBSTRUCTIONS TO VISIBILITY.

  * THESE STATIONS DO NOT REPORT WEATHER SUCH AS RAIN...SNOW OR FOG.

NEZ001>004-019>022-054>056-011700-
NEBRASKA PANHANDLE

CITY           SKY/WX    TMP DP  RH WIND       PRES   REMARKS
SCOTTSBLUFF    SUNNY     82  62  50 NW6       30.05S
ALLIANCE       MOSUNNY   84  63  49 N13       30.02S
CHADRON        MOSUNNY   83  64  52 W8        30.00S
KIMBALL          N/A    N/A N/A N/A MISG        N/A
SIDNEY         SUNNY     84  59  42 N13       30.07R
$$

NEZ057>060-069>072-079>082-011700-
SOUTHWEST NEBRASKA

CITY           SKY/WX    TMP DP  RH WIND       PRES   REMARKS
NORTH PLATTE   SUNNY     85  65  51 N8        29.92F
IMPERIAL       SUNNY     90  56  31 N12       29.96S
LEXINGTON      SUNNY     79  67  66 N9        29.90S
MCCOOK         SUNNY     85  65  51 NE12      29.90S
OGALLALA       SUNNY     82  66  56 NW6       29.97S
$$

NEZ005>010-023>029-035>040-094-011700-
NORTH CENTRAL NEBRASKA

CITY           SKY/WX    TMP DP  RH WIND       PRES   REMARKS
VALENTINE      SUNNY     81  68  64 NW9       29.91S
AINSWORTH      SUNNY     76  67  71 N5        29.92S
BROKEN BOW     SUNNY     78  67  68 N9        29.90S
O`NEILL        CLOUDY    71  67  85 E9        29.92S
ORD            CLOUDY    71  64  78 NE9       29.89S
THEDFORD       SUNNY     84  67  56 N5        29.94S
$$

NEZ041-046>049-061>064-073>077-083>087-011700-
SOUTH CENTRAL NEBRASKA

CITY           SKY/WX    TMP DP  RH WIND       PRES   REMARKS
GRAND ISLAND   CLOUDY    71  65  81 E9        29.89S
AURORA         CLOUDY    73  68  83 E9        29.88S
HASTINGS       MOSUNNY   76  66  71 NE13      29.87R
HEBRON         SUNNY     81  66  60 NE9       29.82R
HOLDREGE       SUNNY     76  65  67 N16       29.88S
KEARNEY *      MOSUNNY   73  64  73 NE14      29.89R
$$

NEZ011>018-030>034-042>045-011700-
NORTHEAST NEBRASKA

CITY           SKY/WX    TMP DP  RH WIND       PRES   REMARKS
NORFOLK        PTSUNNY   75  67  76 E10       29.89S
ALBION         PTSUNNY   74  65  74 NE8       29.89R
BLAIR          MOSUNNY   74  66  75 E12       29.87S
COLUMBUS *     MOSUNNY  N/A N/A N/A MISG        N/A
FREMONT        SUNNY     76  67  74 E9        29.88R
TEKAMAH        MOSUNNY   75  67  76 SE7       29.88
WAYNE          MOSUNNY   74  68  80 E9        29.91F
$$

NEZ050>053-065>068-078-088>093-011700-
SOUTHEAST NEBRASKA

CITY           SKY/WX    TMP DP  RH WIND       PRES   REMARKS
LINCOLN        MOSUNNY   78  69  73 E12       29.85F
OMAHA EPPLEY   PTSUNNY   77  68  73 SE15      29.87F
BEATRICE       MOSUNNY   79  71  75 E10       29.83S
FALLS CITY     CLOUDY    77  70  79 E10       29.85R
NEBRASKA CITY  MOSUNNY   76  68  75 E10       29.87F
PLATTSMOUTH    MOSUNNY   77  69  75 E12       29.86F
$$

NEZ044-045-051>053-067-011700-
OMAHA AREA

CITY           SKY/WX    TMP DP  RH WIND       PRES   REMARKS
OMAHA EPPLEY   PTSUNNY   77  68  73 SE15      29.87F
BLAIR          MOSUNNY   74  66  75 E12       29.87S
FREMONT        SUNNY     76  67  74 E9        29.88R
MILLARD        SUNNY     76  69  77 E9        29.86F
OFFUTT AFB     MOSUNNY   76  69  78 E10       29.85F
PLATTSMOUTH    MOSUNNY   77  69  75 E12       29.86F
WAHOO          FAIR      77  68  73 E9        29.86S
$$


USA.gov is the U.S. government's official web portal to all federal, state and local government web resources and services.